This is the latest recevied weather packets stored in our database for station/object K7PMV-13. If no packets are shown the sender has not sent any weather packets the latest 10 day(s).
| Time | Temp. | Humidity | Pressure | Rain* | Wind** | Luminosity | Snow |
|---|---|---|---|---|---|---|---|
| 1777991990 | 18.89° C | 62% | 1008 hPa | 0 mm | - | 130 W/m² | - |
| 1777991673 | 18.89° C | 62% | 1008.1 hPa | 0 mm | - | 188 W/m² | - |
| 1777991350 | 18.89° C | 63% | 1008.1 hPa | 0 mm | - | 144 W/m² | - |
| 1777991035 | 18.89° C | 64% | 1008.1 hPa | 0 mm | - | 167 W/m² | - |
| 1777990721 | 18.89° C | 64% | 1008.1 hPa | 0 mm | - | 151 W/m² | - |
| 1777990401 | 18.33° C | 65% | 1008 hPa | 0 mm | - | 125 W/m² | - |
| 1777989772 | 18.33° C | 67% | 1008.1 hPa | 0 mm | - | 86 W/m² | - |
| 1777989450 | 18.33° C | 69% | 1008.1 hPa | 0 mm | - | 88 W/m² | - |
| 1777989135 | 18.33° C | 70% | 1008 hPa | 0 mm | - | 90 W/m² | - |
| 1777988820 | 18.33° C | 71% | 1007.9 hPa | 0 mm | - | 76 W/m² | - |
| 1777988506 | 18.33° C | 71% | 1007.9 hPa | 0 mm | - | 56 W/m² | - |
| 1777988191 | 18.33° C | 70% | 1007.9 hPa | 0 mm | - | 42 W/m² | - |
| 1777987859 | 18.33° C | 70% | 1007.8 hPa | 0 mm | - | 33 W/m² | - |
| 1777987541 | 17.78° C | 69% | 1007.7 hPa | 0 mm | - | 26 W/m² | - |
| 1777987226 | 17.78° C | 69% | 1007.9 hPa | 0 mm | - | 12 W/m² | - |
| 1777986912 | 17.78° C | 69% | 1007.9 hPa | 0 mm | - | 7 W/m² | - |
| 1777986583 | 17.78° C | 69% | 1007.9 hPa | 0 mm | - | 7 W/m² | - |
| 1777986254 | 17.78° C | 68% | 1007.7 hPa | 0 mm | - | 7 W/m² | - |
| 1777985936 | 17.78° C | 68% | 1007.6 hPa | 0 mm | - | 5 W/m² | - |
| 1777985620 | 17.78° C | 68% | 1007.6 hPa | 0 mm | - | 0 W/m² | - |
| 1777985301 | 17.78° C | 68% | 1007.5 hPa | 0 mm | - | 0 W/m² | - |
| 1777984982 | 17.78° C | 67% | 1007.4 hPa | 0 mm | - | 0 W/m² | - |
| 1777984654 | 17.78° C | 67% | 1007.3 hPa | 0 mm | - | 0 W/m² | - |
| 1777984340 | 17.78° C | 67% | 1007.3 hPa | 0 mm | - | 0 W/m² | - |
| 1777984020 | 18.33° C | 67% | 1007.2 hPa | 0 mm | - | 0 W/m² | - |
* Rain latest hour (hover to see other rain measurements)
** Current wind speed in m/s (hover to see current wind gust speed)